Presure
215 195 178 174 221 180 215 188 172 191 184 185 190 147 170 184 185 179 170 136 179 197 197 179 196 171 173 187 172 183 164 159 169 200 177 186 178 167
212 204 183 172 169 199 189 168 199 199 199 195 193 169 190 188 164 183 165 130 196 181 160 211 167 164 142 197 171 180 181 170 179 177 182 174 171 175
223 217 197 179 191 189 189 200 191 189 207 203 192 140 188 196 194 193 178 201 181 165 171 159 170 163 180 183 166 174 168 178 192 198 189 194 190 170
211 221 191 217 193 206 164 194 185 191 186 190 204 194 198 201 190 171 161 203 206 136 133 144 167 162 155 159 163 201 186 166 185 186 171 167 195 197
157 153 209 196 212 192 194 199 182 202 201 186 180 203 204 204 163 203 183 208 156 188 155 199 163 173 156 160 188 166 202 180 179 190 183 199 188 207
177 214 187 215 208 201 209 196 195 200 201 196 181 176 192 184 193 191 188 196 148 200 164 171 182 185 166 190 172 199 170 201 188 194 204 194 189 195
205 156 216 213 207 200 193 216 189 211 198 165 191 154 178 169 175 193 202 169 189 169 182 153 157 191 154 165 195 160 193 184 192 198 192 205 197 214
151 253 225 198 217 215 202 206 191 183 199 212 192 192 189 187 204 190 202 205 208 180 195 216 187 192 171 197 181 200 198 213 184 195 194 200 194 220
141 242 144 159 222 206 200 207 194 213 192 201 204 191 198 188 172 180 187 170 200 182 194 188 183 180 186 194 190 193 186 188 195 195 187 206 225 223
245 164 136 193 188 212 210 190 130 194 195 160 197 197 192 181 162 190 199 169 178 201 190 200 198 184 174 192 190 190 201 200 207 124 184 149 210 213
240 221 221 216 221 208 181 213 200 170 197 184 207 203 200 192 202 178 180 193 209 209 170 186 195 180 196 205 189 209 201 197 210 158 182 219 211 231
150 146 151 213 223 217 160 192 189 146 157 193 211 198 196 204 184 174 207 197 191 197 201 203 203 191 192 207 208 197 200 139 151 225 213 213 236 221
161 221 222 206 215 181 207 210 179 190 197 211 209 214 204 179 190 195 184 199 186 202 204 200 173 207 213 203 211 175 205 229 223 210 204 232 214 240
249 200 228 144 225 149 208 188 203 202 201 210 205 192 190 201 202 209 205 208 212 207 203 196 124 162 167 201 201 182 230 219 207 218 207 239 244 198
252 236 235 226 223 225 217 212 205 205 205 202 203 201 201 198 190 216 212 198 206 203 144 127 131 199 213 210 213 230 206 228 227 231 240 276 248 279
222 221 216 216 226 215 227 223 216 216 209 219 204 199 201 204 215 209 210 209 215 206 187 217 222 213 202 216 221 208 225 229 215 234 262 224 220 241
237 238 244 230 227 214 213 216 217 216 216 216 215 219 212 214 194 204 215 218 212 205 208 174 220 216 227 212 216 226 214 244 254 261 232 214 171 265
257 246 250 232 224 210 236 223 210 214 215 211 205 207 210 212 223 227 223 226 227 216 225 215 218 202 215 225 203 223 239 255 226 242 282 249 76 262
250 242 237 222 220 207 244 224 243 212 225 231 227 225 222 216 214 227 224 207 220 227 227 199 208 229 207 209 251 241 228 240 249 273 177 224 173 269
225 227 247 232 243 244 246 237 231 235 243 239 244 231 231 218 226 228 215 227 234 223 222 250 212 257 259 261 260 242 260 262 269 275 267 280 284 239
230 227 226 225 225 226 225 228 231 242 226 236 236 231 229 231 217 214 218 224 215 219 215 260 262 247 228 235 254 282 212 243 281 282 287 287 243 255
271 270 274 275 277 265 267 269 264 281 227 217 226 235 241 267 274 266 254 252 258 261 248 226 236 246 264 274 271 267 281 282 289 278 288 277 294 326
251 254 253 251 245 240 227 221 269 225 253 263 250 253 259 258 256 253 237 226 233 243 254 257 285 282 288 288 294 286 281 280 279 283 267 293 320 323
Wind_Speed
90 76 71 69 78 72 77 72 68 78 78 78 79 62 72 79 75 73 70 54 64 73 76 52 67 65 58 59 61 62 71 74 73 76 75 79 80 87
86 78 69 72 65 78 79 69 75 79 82 81 80 68 81 81 71 77 73 61 80 65 60 75 59 68 69 68 67 66 66 75 72 77 77 83 88 87
99 91 82 67 72 76 79 79 79 78 78 80 77 63 81 82 82 82 68 84 59 62 57 66 60 73 65 66 74 71 78 76 80 87 83 86 91 93
96 101 77 92 79 85 70 81 80 83 83 85 81 80 82 81 80 63 75 84 83 69 64 73 68 75 83 82 79 81 75 85 82 87 88 93 92 96
63 64 93 81 90 81 81 85 76 87 84 74 74 81 83 84 68 80 72 81 74 69 75 80 77 77 77 86 82 87 87 84 86 92 93 99 96 108
84 102 82 95 91 86 83 85 84 88 83 77 77 77 80 76 75 75 71 76 76 78 77 75 81 81 80 85 80 90 90 93 93 96 108 106 103 108
99 66 100 97 95 89 85 91 79 88 84 75 84 73 70 78 67 83 82 68 72 76 76 68 73 82 84 91 89 88 92 93 96 103 103 115 113 119
62 107 108 93 100 99 93 96 83 77 90 85 87 86 82 79 89 76 88 86 89 81 92 96 90 88 90 96 92 96 97 107 98 105 110 116 114 125
71 103 67 71 102 93 93 94 87 91 87 91 90 84 93 81 68 74 74 82 93 91 97 85 85 92 87 99 94 95 97 105 105 109 106 123 128 125
93 76 66 87 84 101 99 82 62 91 86 72 90 88 86 76 80 79 86 84 84 99 89 96 97 92 94 99 97 102 107 108 116 57 105 78 123 122
95 96 99 98 100 98 81 102 91 72 92 78 98 96 97 87 93 79 79 88 103 102 89 92 98 95 102 109 100 114 108 109 121 82 103 132 127 143
76 74 72 92 100 100 71 81 80 67 69 88 102 92 90 99 76 82 101 95 88 97 103 103 104 94 99 115 115 106 111 63 80 130 128 125 144 127
76 97 101 95 102 87 104 104 70 77 91 106 102 101 98 84 86 95 90 102 85 101 104 97 79 117 121 114 120 91 122 136 133 121 114 146 119 140
101 91 107 71 105 70 105 94 98 97 96 103 101 85 90 102 102 109 110 111 108 107 101 103 46 78 88 110 113 103 135 132 113 129 125 143 142 91
89 103 106 107 107 109 111 110 103 107 103 98 100 96 97 94 95 115 114 100 103 106 74 56 62 104 120 122 129 134 116 138 142 146 136 128 133 116
90 84 93 96 108 102 109 110 112 111 101 113 98 95 101 107 114 111 110 116 123 116 99 125 127 120 112 126 128 112 136 142 128 137 125 119 119 133
101 103 103 111 106 98 100 108 109 108 109 110 110 113 111 116 89 107 119 120 110 105 114 94 124 121 131 113 121 130 117 135 128 115 120 106 88 127
97 105 106 108 100 87 110 109 96 106 110 105 104 109 116 113 124 125 121 122 120 115 120 114 121 99 124 138 99 126 135 116 115 122 111 122 26 130
104 106 102 97 99 88 109 103 111 104 116 127 128 124 116 110 111 122 123 96 121 129 128 92 109 135 98 107 121 129 114 118 121 115 79 91 74 123
96 97 107 106 111 116 114 115 113 115 118 115 118 112 120 106 118 120 110 122 123 114 126 119 107 119 116 116 111 117 115 115 105 112 114 116 120 100
99 98 99 99 100 102 100 105 109 114 108 117 116 114 117 117 108 110 113 121 110 122 112 113 105 106 105 108 111 105 93 95 110 111 114 114 93 97
61 68 68 68 69 77 83 86 85 86 103 95 110 122 116 99 92 93 106 107 101 99 99 100 103 107 107 105 105 102 103 106 108 111 116 110 113 116
65 65 69 77 95 103 98 89 72 99 87 85 98 93 86 86 87 89 92 94 96 99 104 105 98 99 97 95 94 95 98 100 105 110 112 120 119 119
Wind_Direction
243 243 250 252 243 254 246 251 262 254 259 263 264 264 270 274 277 279 284 292 286 285 289 291 292 288 288 290 282 292 282 287 286 305 290 298 293 292
245 242 246 252 252 247 252 262 251 252 255 258 262 267 268 272 280 279 281 290 282 284 285 287 281 288 297 289 282 291 294 285 294 295 294 288 291 291
240 244 246 247 247 249 251 249 254 258 254 254 262 280 267 266 270 274 277 277 285 280 282 280 281 289 291 289 284 286 284 291 299 305 299 300 298 293
238 240 246 244 245 245 254 249 254 255 260 261 258 263 264 265 270 276 279 278 281 290 283 289 279 281 290 289 286 301 296 290 297 297 291 293 302 301
244 247 240 244 243 247 249 249 256 253 256 261 269 260 260 264 270 274 279 278 275 286 276 282 278 286 294 288 296 287 299 293 294 300 295 305 297 307
242 238 243 241 244 246 245 252 256 257 258 257 267 267 268 273 272 277 282 281 282 283 281 279 286 290 291 295 298 300 287 300 299 304 303 303 298 300
234 246 239 241 243 247 250 249 255 253 258 265 266 272 269 272 274 277 278 273 289 280 283 290 292 290 291 286 300 295 300 297 302 303 301 307 301 307
244 231 234 242 240 242 247 248 255 259 258 253 263 265 270 275 270 279 279 281 277 282 290 286 288 290 283 297 290 301 303 302 296 302 304 301 299 307
250 230 254 251 238 244 248 248 255 250 260 259 259 265 268 274 269 276 282 282 274 281 283 289 286 284 291 299 295 298 296 299 301 301 298 305 306 307
226 244 258 241 243 241 243 251 271 255 258 267 264 263 268 272 276 280 280 274 285 285 286 292 291 287 286 295 294 299 302 302 303 294 297 310 304 304
224 232 234 237 238 243 250 246 254 257 257 264 261 267 269 272 275 270 273 285 282 284 288 290 293 287 295 298 291 302 300 300 304 303 300 305 306 309
245 249 248 240 239 241 253 254 256 267 267 263 259 268 272 270 273 271 278 286 284 288 289 290 294 292 297 301 300 299 298 310 305 304 303 303 310 307
241 233 234 239 239 247 245 248 256 259 260 260 264 264 267 271 277 280 283 283 280 287 290 293 294 298 298 299 301 293 302 303 304 300 303 308 305 306
227 236 233 254 239 256 245 251 254 257 262 263 265 268 268 272 275 277 280 282 285 290 290 294 297 298 301 297 297 301 303 303 301 304 304 305 304 304
234 228 231 234 237 241 243 247 254 255 260 263 265 270 272 276 279 276 282 285 287 290 292 304 305 291 295 298 298 300 299 303 305 305 302 302 301 302
238 241 243 244 241 246 247 247 251 255 260 257 267 273 274 276 277 280 282 287 286 288 289 292 292 293 295 296 299 297 302 301 303 300 300 303 303 301
239 238 238 242 243 251 254 254 256 257 259 262 266 266 270 274 278 282 282 284 284 288 290 291 291 293 297 296 298 299 303 297 299 298 301 301 300 298
235 237 240 242 249 253 250 253 260 259 261 265 269 271 271 275 275 277 280 284 283 286 289 290 295 290 295 295 297 300 297 296 299 298 297 298 294 298
237 242 245 250 253 256 251 258 258 260 261 261 263 267 271 275 278 278 283 283 288 289 290 287 293 293 294 297 291 294 296 298 298 297 297 297 295 300
244 245 242 248 248 252 255 257 260 262 263 265 267 269 271 276 278 281 284 283 283 285 288 286 291 287 288 291 293 293 296 295 295 296 296 298 301 304
244 247 250 252 254 256 259 261 263 263 266 268 270 274 276 273 279 280 279 282 286 285 287 285 286 288 291 292 294 293 298 297 297 297 297 299 302 310
243 244 247 249 252 255 257 258 262 262 270 275 274 272 274 272 271 274 279 278 279 282 284 286 288 289 290 290 292 293 296 297 299 300 300 304 305 308
245 246 248 251 253 255 259 264 265 268 267 268 270 271 272 274 276 277 279 281 282 285 285 286 286 287 289 292 294 296 295 297 298 301 306 306 310 312